Dewpoint
47 47 47 47 47 47 48 48 48 48 49 39 38 37 26 20 15 24 31 31 26 13 4 21 20 14 19 20 23 26 24 22 23 22 23 17 21 18 20 21 11 12 17 16 15 16 12 14 10 13 12 17 17 20 20 22 25 23 17 14 18 19 5 1 5 3 3 9 9 15 16 15 14 14 12 13 8 7 7 6 5 4 1 3 -4 -1 -3
47 47 47 47 47 47 48 48 47 47 48 43 38 25 22 22 23 21 31 29 28 14 -4 6 16 20 23 22 24 24 27 23 21 20 23 20 18 13 16 16 15 15 19 18 17 16 4 9 9 10 14 14 22 19 23 22 23 17 17 12 19 3 5 6 -2 -7 0 3 5 11 11 14 13 8 8 8 5 2 2 2 -1 3 -1 5 1 -2 -6
47 47 47 47 48 47 47 47 47 47 48 46 36 22 24 22 22 24 27 26 25 14 16 15 10 16 11 14 14 17 21 26 25 22 24 23 18 14 15 19 19 19 20 20 20 20 10 11 11 10 11 16 20 20 21 18 22 25 26 31 26 4 5 3 -1 -3 -4 -3 -5 1 6 7 12 6 6 5 3 3 7 3 -3 2 2 4 -0 -8 5
47 47 47 47 47 46 47 47 47 48 48 48 32 26 21 14 3 17 22 21 23 24 24 22 19 12 8 6 8 17 15 19 23 25 25 23 23 17 18 21 20 18 15 16 18 17 18 13 10 10 11 11 13 22 19 22 24 25 28 27 15 6 9 7 2 1 3 6 7 9 16 9 6 6 4 6 1 -2 0 -2 -5 -1 -2 -2 2 3 7
47 47 47 46 46 47 47 48 48 48 48 48 32 26 18 16 16 11 13 21 20 18 22 24 20 12 17 8 10 10 17 17 19 24 15 22 20 22 21 21 15 16 15 14 13 16 17 16 11 11 9 10 12 14 19 21 23 29 29 20 7 2 4 7 8 7 9 11 13 8 13 6 6 2 5 6 5 2 2 2 1 4 1 1 6 8 5
47 47 46 46 47 48 49 49 49 48 48 48 34 23 23 12 14 15 14 13 8 17 16 22 21 21 16 11 16 13 15 16 12 16 22 24 22 11 12 17 19 20 18 14 8 14 13 11 9 8 9 11 16 14 18 17 21 21 16 13 9 3 4 8 7 4 6 7 7 8 8 8 8 7 7 7 7 7 3 2 6 5 1 5 7 8 6
46 46 46 47 48 48 49 49 49 49 48 43 31 22 22 20 20 21 22 11 14 12 14 24 20 19 21 23 19 16 15 14 18 17 18 13 15 16 6 14 18 21 22 16 12 14 8 9 9 10 12 11 12 11 11 19 18 18 15 15 4 8 4 11 6 5 7 7 7 8 8 8 9 8 8 8 7 6 5 6 8 8 7 8 8 7 7
47 47 48 48 48 48 49 49 48 49 47 40 30 26 15 15 13 11 23 21 20 20 19 22 18 14 19 8 15 19 19 17 20 20 15 9 13 21 18 20 20 22 21 18 13 17 14 12 11 11 15 11 10 10 11 15 18 17 14 13 13 8 4 13 6 3 3 8 8 8 8 8 8 9 9 9 7 7 6 5 7 7 4 7 7 6 4
48 48 47 48 48 49 49 48 47 47 46 28 29 27 26 23 22 22 21 17 18 20 18 17 17 15 17 15 15 20 19 20 21 21 22 18 18 22 22 21 22 22 22 22 22 23 22 16 16 18 14 13 18 11 12 18 13 13 12 11 12 11 8 -3 -1 4 2 9 7 8 8 8 7 7 8 9 8 4 7 1 5 5 3 5 3 2 2
48 48 48 48 48 49 49 48 47 45 42 29 27 27 27 29 31 26 25 16 21 14 16 15 17 13 11 21 20 20 21 21 22 14 18 25 24 23 24 23 21 19 20 20 23 24 23 25 24 22 21 21 21 21 20 19 15 10 9 8 8 6 5 4 1 -1 -4 10 7 7 7 6 1 -0 8 8 9 8 8 7 9 9 8 3 -0 -0 5
48 49 48 48 48 49 48 48 47 46 37 28 29 29 29 25 24 26 23 13 14 13 14 15 16 17 19 21 20 21 22 23 22 7 9 24 25 25 24 24 19 17 18 25 27 26 26 25 23 22 22 21 20 18 13 12 17 17 12 5 4 4 3 5 6 -3 -0 5 4 7 1 -6 -5 7 9 8 8 8 6 6 7 9 7 6 6 6 5
49 49 48 48 48 49 48 47 46 44 39 34 32 29 29 28 27 24 23 18 10 13 18 14 13 17 21 22 22 21 23 23 23 23 15 19 22 24 22 21 17 13 23 25 26 25 25 24 23 21 20 18 14 12 10 9 9 14 13 9 3 2 -0 6 1 -2 0 1 -3 -8 -17 -4 5 10 9 9 9 9 8 7 8 8 5 5 4 4 4
49 49 48 48 48 48 48 46 45 44 40 33 33 31 30 30 26 22 20 18 12 16 13 11 12 16 19 22 22 21 21 22 23 25 23 22 20 24 25 22 22 25 26 25 23 22 19 17 18 19 17 14 16 14 13 9 8 8 9 12 6 4 5 2 -1 -1 -5 -7 -10 -25 -14 -4 10 11 9 10 10 8 7 7 7 7 5 4 3 3 3
48 48 48 47 48 48 48 46 43 43 42 38 35 30 29 32 28 22 22 20 17 14 15 14 16 20 21 22 22 21 18 16 19 21 23 25 22 23 26 27 27 28 24 23 21 17 12 6 5 8 11 7 7 8 15 13 11 8 8 8 10 8 -2 -1 -6 -4 -12 -16 -10 -5 -5 4 4 7 8 8 7 7 6 1 5 6 4 4 3 3 3
47 47 48 48 48 48 48 48 44 41 39 37 32 30 31 31 30 25 23 21 19 19 18 14 21 22 21 23 22 19 15 15 19 16 19 25 22 22 26 29 26 25 24 22 16 13 10 0 2 -2 1 1 1 2 10 12 13 9 8 8 9 7 1 2 -4 -5 -5 -3 -8 -12 -17 -15 -5 8 10 10 10 9 9 8 5 4 4 4 3 2 2
47 48 48 48 48 48 48 48 47 43 40 37 30 29 29 31 29 26 22 21 20 14 20 24 25 23 23 23 23 20 17 14 15 16 15 18 20 25 27 25 26 24 21 12 11 5 6 5 2 -2 3 3 4 7 0 9 7 9 9 7 6 7 6 2 2 -5 -5 -6 -9 -12 -17 -13 -2 8 9 10 10 10 10 -1 -1 5 4 4 3 2 2
46 46 47 47 47 47 48 47 46 44 43 43 28 27 27 29 30 27 22 23 22 16 24 26 27 25 24 18 19 18 22 16 20 12 11 13 17 21 22 26 26 25 22 11 9 6 6 1 -4 -2 -3 4 5 4 7 6 5 4 7 9 4 2 0 0 -0 -7 -7 -8 -7 -15 -14 -12 6 9 9 9 10 9 -0 -8 -6 3 4 3 2 2 2
46 46 47 46 47 47 47 46 45 42 39 38 28 26 26 29 29 28 24 22 21 21 25 28 26 26 23 21 18 22 24 22 21 19 17 17 19 20 20 22 19 20 23 8 7 3 -2 -1 3 2 3 10 9 5 0 4 0 1 5 6 1 -3 -3 -2 -6 -7 -8 -1 -14 -15 -13 11 11 10 10 9 9 -1 -9 -9 -2 4 4 3 2 1 1
46 46 47 47 47 47 47 46 44 43 41 37 29 27 26 29 29 26 24 24 22 17 23 29 29 26 27 29 27 27 27 26 24 10 10 14 14 20 22 22 21 12 17 6 8 4 2 5 7 -2 3 5 8 1 7 -0 0 6 5 2 -0 -5 -9 -7 -15 -8 -6 -14 -5 -6 -8 -2 9 10 8 9 -2 -9 -3 2 4 4 3 3 0 -1 -1
46 46 48 48 47 47 47 48 45 42 39 37 31 24 25 29 27 27 21 21 20 22 25 25 27 25 28 26 24 22 25 22 22 12 9 11 18 18 16 11 15 16 13 12 5 9 3 6 5 5 0 3 8 8 1 5 8 5 5 -0 -3 -5 -4 -7 -5 -6 -8 -11 -12 -11 -18 -5 9 8 4 5 -1 3 4 4 4 4 3 0 -1 -1 -1
47 47 47 47 48 48 48 47 46 45 43 39 35 25 25 28 29 27 26 23 23 20 18 26 25 26 27 25 27 26 27 22 23 18 21 17 20 14 7 4 9 13 11 6 7 8 4 5 4 4 8 4 9 8 2 -3 1 7 6 -3 -2 -3 -6 -10 -12 -11 -9 -20 -13 -12 -1 6 9 5 3 6 5 7 5 4 3 3 1 -1 -1 -1 -2
47 47 47 47 47 46 45 46 47 46 43 39 35 25 24 26 29 30 29 26 23 20 21 23 25 25 27 28 28 29 27 27 29 27 25 18 22 17 13 21 21 15 17 5 7 5 10 6 0 1 4 5 7 1 -1 -5 -1 1 1 0 -6 2 -4 -5 -4 -6 -5 -5 -4 6 10 9 8 3 3 5 7 7 6 4 3 2 -1 -2 -2 -2 -4
46 47 47 47 47 47 45 43 45 44 43 41 34 25 23 25 27 29 27 26 27 29 29 28 28 28 29 29 30 30 28 31 31 28 26 25 16 21 21 19 18 22 23 19 13 8 8 2 6 4 1 1 2 -0 0 -1 -2 -5 -3 5 5 7 7 6 2 -2 2 3 5 10 11 9 9 7 6 4 4 6 4 3 1 -0 -2 -3 -3 -4 -5
46 47 46 46 46 46 45 44 42 43 42 40 32 25 25 26 26 27 25 26 23 22 26 29 22 21 22 24 26 26 27 28 29 30 30 27 15 11 18 23 25 20 20 21 16 11 6 4 4 -0 4 2 -6 -7 -4 -3 -6 -2 -5 -3 -5 2 7 6 0 4 -0 -7 9 7 7 8 10 5 4 6 5 4 3 0 -2 -2 -3 -4 -4 -5 -5
47 46 45 45 46 45 46 45 43 43 42 40 35 34 32 30 29 29 23 16 13 18 13 12 21 23 25 25 27 26 26 27 29 30 30 29 27 19 16 23 26 21 19 23 20 10 4 6 5 1 3 4 6 -1 5 -1 -5 4 -5 -2 -4 -3 7 5 6 6 1 -1 2 6 8 7 8 2 1 2 4 1 -0 -2 -3 -4 -4 -4 -5 -5 -6
46 46 45 45 44 44 43 44 44 43 43 42 40 30 31 28 30 28 25 24 21 18 16 12 18 24 25 25 24 26 26 27 26 27 28 28 28 28 27 28 28 26 24 20 11 7 4 5 -2 -5 0 3 9 1 -1 3 3 6 1 -3 0 1 5 -5 4 2 3 4 4 7 6 6 3 2 3 3 1 1 -1 -4 -4 -4 -5 -5 -5 -5 -7
45 45 46 44 45 44 42 43 43 42 40 38 32 31 31 29 30 28 25 23 22 12 17 12 12 17 23 23 27 27 28 27 26 25 25 27 29 29 28 25 24 18 14 8 9 5 4 1 3 4 0 1 -6 -1 0 4 3 -2 -4 4 6 2 -1 4 2 -4 -6 -3 1 6 3 -0 4 5 1 0 -1 -1 -3 -4 -4 -4 -5 -5 -6 -6 -7
45 45 45 44 44 42 41 42 42 40 39 37 34 31 29 31 31 31 29 28 23 19 16 9 14 18 23 24 28 27 26 28 26 26 24 25 27 26 26 24 21 10 5 7 8 10 -1 6 5 1 -1 5 3 2 -1 -1 -4 -3 1 5 7 1 1 6 -2 -5 1 4 5 7 6 6 6 2 0 -2 -2 -3 -4 -5 -4 -4 -4 -5 -6 -7 -7
44 45 45 44 43 43 44 44 42 41 39 37 28 27 26 29 31 33 31 27 24 22 21 20 20 18 13 17 26 22 25 26 25 24 25 25 23 23 24 21 15 11 6 7 4 2 -1 5 3 4 7 13 5 2 -1 0 -7 -7 -6 3 8 6 6 6 5 5 5 6 7 5 4 4 4 2 -1 -3 -3 -3 -4 -4 -4 -4 -5 -5 -6 -7 -8
44 44 44 45 45 46 46 46 45 44 39 27 27 22 21 18 28 35 36 29 25 23 18 11 12 7 17 22 21 22 24 26 23 23 22 21 20 21 20 19 19 21 13 7 4 8 10 7 8 11 13 18 9 1 -2 -9 -13 -5 3 8 9 8 9 8 6 6 7 8 5 3 3 3 3 -1 -2 -2 -2 -3 -4 -4 -4 -4 -5 -5 -6 -7 -8
44 43 43 43 43 43 42 43 45 42 36 26 23 17 14 12 13 32 38 27 25 21 15 18 10 9 15 20 22 20 24 25 23 22 23 21 19 19 18 16 17 21 6 4 6 8 9 6 4 9 13 20 7 -0 -0 -8 -9 -9 -3 8 9 7 7 6 8 9 9 8 2 2 3 4 2 1 -2 -2 -3 -3 -4 -4 -4 -3 -5 -5 -6 -8 -8
44 44 43 42 42 41 40 38 36 34 26 24 20 17 15 14 18 33 35 33 27 24 21 14 8 9 9 18 19 23 25 25 20 20 18 21 16 18 16 18 13 22 24 8 10 4 6 12 5 4 4 16 9 -9 -10 -8 -6 -2 2 8 9 8 7 6 7 9 3 4 5 5 4 3 1 1 1 -2 -3 -3 -3 -4 -4 -5 -5 -5 -6 -6 -7
44 44 44 43 43 43 42 40 38 32 24 29 37 38 38 39 38 38 36 25 21 14 14 16 5 11 11 7 14 17 24 18 16 17 13 19 16 17 13 19 17 15 25 17 5 5 10 10 7 3 10 5 -1 -8 -6 -3 -0 -1 4 10 8 6 6 7 8 8 4 2 5 4 4 3 1 0 -1 -2 -2 -3 -3 -4 -4 -5 -6 -7 -8 -8 -9
44 44 45 45 45 44 43 41 40 37 36 25 19 20 26 38 34 36 26 23 16 13 15 11 6 7 7 10 9 13 21 15 10 13 9 18 18 17 14 12 17 10 11 10 12 12 10 8 5 5 8 5 0 -1 -1 5 4 3 7 8 6 6 7 8 8 6 3 2 2 2 1 2 1 -0 -1 -1 -2 -3 -2 -4 -6 -7 -8 -8 -8 -8 -9
44 43 43 45 44 45 42 39 26 29 22 26 20 22 26 39 33 30 28 17 4 6 8 10 11 5 5 5 -1 10 16 13 7 11 11 12 17 14 16 7 8 8 7 13 10 10 4 7 11 5 4 -1 3 2 2 6 6 8 7 6 6 7 7 8 8 7 4 2 1 1 1 1 0 -0 -1 -1 -2 -3 -3 -4 -5 -7 -8 -8 -9 -9 -9
44 42 42 43 42 41 30 30 27 24 18 16 17 26 41 42 38 26 24 21 17 11 9 5 6 3 1 2 0 4 16 13 12 7 9 12 11 11 8 6 7 11 15 10 3 4 4 15 7 3 -5 1 0 0 3 7 7 9 8 6 6 7 8 9 9 5 2 1 0 0 1 0 0 0 -1 -2 -2 -4 -4 -5 -6 -7 -9 -8 -9 -9 -9
44 41 39 38 30 26 18 15 29 22 17 20 28 38 38 37 27 27 24 25 23 20 15 7 12 5 8 6 7 9 14 4 8 4 3 10 8 6 4 6 6 16 8 1 -1 5 9 8 3 2 -2 -1 0 4 7 10 9 9 8 7 7 7 7 7 4 3 1 1 1 1 0 -0 -1 -1 -2 -2 -3 -4 -5 -5 -7 -8 -10 -10 -9 -10 -11
42 40 25 24 22 15 12 14 16 21 36 36 37 26 25 26 14 14 18 15 10 22 12 13 6 3 7 11 4 12 12 2 8 4 3 1 13 7 4 8 14 19 4 -3 -1 11 1 -1 -2 5 4 8 8 9 11 11 11 9 8 7 7 7 7 6 1 1 1 2 3 2 1 0 -0 -0 -2 -3 -4 -5 -4 -5 -6 -8 -8 -9 -10 -10 -11
35 24 23 21 16 11 17 17 26 38 30 32 30 16 13 11 9 5 5 6 7 11 6 13 5 8 5 1 7 20 14 8 6 -1 2 9 4 4 2 2 3 5 -4 -5 -0 4 -1 -5 -10 -6 3 4 6 10 11 11 8 7 7 7 8 7 5 2 2 2 3 3 3 2 1 1 -0 -1 -2 -3 -4 -4 -5 -6 -7 -7 -8 -9 -11 -12 -13
25 20 17 13 14 15 30 30 36 29 30 16 15 12 5 9 16 2 5 4 3 3 6 6 7 9 13 11 7 9 20 10 5 5 6 5 19 1 4 1 -1 1 -2 -5 -1 -2 -2 -7 -12 -7 1 -4 4 10 8 7 6 6 8 7 6 4 2 2 1 1 1 1 -0 -2 -3 -4 -4 -3 -4 -5 -5 -5 -7 -8 -7 -7 -9 -10 -11 -13 -14
24 19 16 13 16 19 22 27 24 20 15 11 4 2 3 4 7 4 5 1 1 1 6 5 2 7 7 9 11 7 16 13 6 1 3 8 10 10 2 -0 3 -2 -4 -3 0 -6 -8 -6 -11 -4 1 5 7 10 8 6 6 7 7 5 3 2 1 0 0 1 1 -1 -2 -4 -5 -8 -7 -7 -5 -5 -6 -7 -9 -9 -9 -10 -12 -14 -14 -14 -12
27 20 18 25 26 27 24 19 14 9 5 6 -1 -4 0 2 5 9 4 1 0 3 10 7 4 5 7 12 11 8 8 4 3 2 5 1 15 2 -3 -3 -4 -8 -10 -4 -7 -10 -6 -5 -9 -9 -4 1 4 8 6 6 7 6 7 5 2 1 0 0 1 2 1 0 -1 -3 -4 -9 -12 -8 -7 -8 -9 -10 -12 -15 -16 -18 -16 -14 -14 -14 -13
37 34 30 21 18 16 16 9 11 5 -0 1 -5 -6 -4 -5 0 1 1 2 4 3 6 7 7 16 13 9 6 9 10 21 18 8 2 -1 18 4 -4 -7 -12 -10 -10 -10 -7 -6 -6 -5 -8 2 4 6 8 8 7 7 7 7 7 5 2 1 0 0 1 -0 -2 -2 -5 -6 -6 -10 -12 -11 -13 -15 -15 -15 -17 -16 -17 -19 -16 -15 -14 -13 -15
28 26 17 14 12 10 11 -0 7 -0 -3 -2 -3 -4 -6 -2 9 2 -2 3 3 5 6 5 6 8 6 6 5 9 10 15 21 -2 -1 -1 -2 -2 -9 -8 -10 -9 -5 -7 -6 -4 -4 -11 -2 4 7 9 10 9 8 8 6 5 5 3 1 0 -0 -1 -2 -4 -4 -5 -8 -9 -12 -15 -15 -13 -18 -20 -18 -15 -17 -20 -22 -16 -15 -15 -15 -15 -17
16 15 12 8 5 8 3 -1 3 -2 -3 -4 7 -5 -3 -3 5 -2 4 8 5 5 5 3 6 6 9 9 2 9 14 5 11 -1 -4 -5 -6 -4 -9 -8 -8 -12 -9 -9 -14 -11 -15 -10 3 2 3 6 10 11 9 8 6 6 5 1 -0 -0 0 -0 -1 -2 -2 -4 -5 -7 -9 -9 -12 -11 -15 -16 -19 -19 -18 -17 -18 -14 -13 -14 -16 -18 -19
15 12 5 2 -1 3 1 -3 -1 -4 -1 7 6 6 2 6 2 2 5 3 5 8 9 6 2 4 6 2 3 1 -7 -3 -1 -5 -5 -9 -6 -8 -9 -5 -9 -6 -13 -15 -12 -14 -6 -1 4 3 7 8 10 11 9 8 7 5 3 3 2 0 0 0 -1 -2 -2 -3 -5 -7 -7 -9 -9 -10 -9 -10 -12 -16 -21 -17 -17 -15 -15 -17 -17 -18 -18
13 10 9 5 3 3 4 -1 -0 2 -0 3 4 8 6 6 8 8 7 5 7 5 3 1 4 5 5 5 3 0 -3 -5 -3 -3 -6 -7 -7 -9 -1 -9 -10 -14 -16 -18 -20 -16 -9 -1 -3 -0 6 10 9 8 8 7 6 4 5 4 3 2 1 1 -0 -1 -1 -5 -7 -7 -8 -7 -8 -8 -10 -12 -12 -12 -14 -15 -16 -17 -16 -16 -16 -18 -20
7 9 8 2 -1 3 4 3 1 5 7 7 8 2 2 3 8 8 7 3 8 8 5 4 6 5 1 2 -0 -1 -2 -1 -4 -4 -7 -8 -8 -13 -16 -19 -14 -15 -17 -19 -8 -6 -4 4 5 5 7 9 9 8 7 7 5 4 4 4 4 3 2 1 0 -0 -4 -6 -7 -7 -7 -10 -10 -11 -12 -12 -14 -13 -14 -15 -18 -21 -23 -23 -24 -25 -24
14 8 6 2 3 5 2 6 5 5 5 1 -2 4 7 8 10 8 7 4 8 6 5 5 4 1 1 3 -2 -3 -2 -4 -9 -9 -7 -8 -11 -15 -18 -22 -20 -16 -6 -5 -0 -0 -1 2 5 4 4 5 5 7 9 9 7 5 4 3 2 3 2 1 1 -0 -4 -6 -8 -9 -10 -11 -13 -13 -14 -14 -15 -13 -12 -18 -21 -24 -26 -24 -22 -22 -21
8 6 10 8 5 4 8 4 8 10 4 1 8 8 4 7 7 5 5 9 1 4 7 10 8 4 -1 -0 -3 -10 -6 -8 -8 -4 -8 -8 -11 -14 -17 -17 -14 -10 -2 -2 -0 2 4 5 -0 5 3 4 4 7 8 7 5 3 2 1 1 1 1 0 -0 -1 -4 -6 -9 -9 -13 -13 -13 -14 -14 -12 -12 -13 -16 -20 -22 -23 -23 -26 -25 -23 -23
9 7 6 5 5 4 11 2 4 4 7 6 5 10 10 10 8 8 7 3 3 2 2 2 1 -3 -3 -8 -12 -11 -14 -7 -6 -4 -6 -9 -14 -14 -15 -9 -3 -2 1 3 5 6 7 4 4 5 3 3 7 7 7 5 0 1 -2 -2 -1 -2 -2 -4 -2 -2 -7 -6 -11 -9 -14 -15 -11 -12 -11 -14 -15 -18 -20 -20 -20 -22 -23 -22 -24 -23 -24
6 5 5 7 4 6 9 7 8 8 12 7 3 5 11 5 6 6 6 11 5 5 3 -0 -2 -5 -6 -6 -8 -9 -8 -8 -7 -7 -8 -6 -10 -10 -9 -4 3 6 6 4 7 5 3 2 4 6 8 9 8 7 3 -1 -4 -6 -7 -6 -5 -4 -4 -4 -3 -5 -8 -10 -15 -13 -12 -15 -18 -18 -17 -17 -17 -18 -17 -14 -18 -22 -22 -21 -21 -22 -24